Elwood, KS

3:42 AM CST on February 27, 2017 (GMT -0600)
Rosecrans Memorial

Weather History for KSTJ - August, 2013

Change the Weather History Date:

Sunday, August 25, 2013

  Actual Average Record
Temperature  
Mean Temperature 82 °F 74 °F  
Max Temperature 93 °F 85 °F 108 °F (1936)
Min Temperature 70 °F 62 °F 49 °F (1982)
Degree Days  
Heating Degree Days 0 0  
Month to date heating degree days 0 0  
Since 1 June heating degree days 17 9  
Since 1 July heating degree days 2 1  
Cooling Degree Days 17 9  
Month to date cooling degree days 224 274  
Year to date cooling degree days 971 1028  
Since 1 June cooling degree days 845 915  
Growing Degree Days 31 (Base 50)    
Moisture  
Dew Point 70 °F    
Average Humidity 70    
Maximum Humidity 90    
Minimum Humidity 49    
Precipitation  
Precipitation 0.00 in 0.14 in 2.80 in (1987)
Month to date precipitation 1.26 3.12  
Year to date precipitation 19.67 25.44  
Sea Level Pressure  
Sea Level Pressure 30.12 in    
Wind  
Wind Speed 8 mph (South)    
Max Wind Speed 15 mph    
Max Gust Speed 18 mph    
Visibility 9 miles    
Events      
T = Trace of Precipitation, MM = Missing Value Source: NWS Daily Summary

Daily Weather History Graph

Daily Weather History Graph

Search for Another Location

Airport or City:

Trip Planner

Search our weather history database for the weather conditions in past years. The results will help you decide how hot, cold, wet, or windy it might be!

Date:

Astronomy

Aug. 25, 2013 Rise Set
Actual Time 6:41 AM CDT 8:01 PM CDT
Civil Twilight 6:13 AM CDT 8:29 PM CDT
Nautical Twilight 5:39 AM CDT 9:02 PM CDT
Astronomical Twilight 5:04 AM CDT 9:38 PM CDT
Moon 10:33 PM CDT (8/25) 11:43 AM CDT (8/25)
Length of Visible Light 14h 15m
Length of Day
13h 19m
Waning Gibbous, 75% of the Moon is Illuminated
Aug 25
Waning Gibbous
Aug 28
Last Quarter
Sep 5
New
Sep 12
First Quarter
Sep 19
Full

Hourly Weather History & Observations

Time (CDT) Temp. Heat Index Dew Point Humidity Pressure Visibility Wind Dir Wind Speed Gust Speed Precip Events Conditions
12:53 AM 73.9 °F - 69.1 °F 85% 30.10 in 9.0 mi South 4.6 mph - N/A   Clear
1:53 AM 73.0 °F - 68.0 °F 84% 30.10 in 8.0 mi South 5.8 mph - N/A   Clear
2:53 AM 72.0 °F - 68.0 °F 87% 30.12 in 8.0 mi South 5.8 mph - N/A   Clear
3:53 AM 72.0 °F - 66.9 °F 84% 30.12 in 8.0 mi SSE 5.8 mph - N/A   Clear
4:53 AM 72.0 °F - 66.9 °F 84% 30.14 in 9.0 mi South 5.8 mph - N/A   Clear
5:53 AM 71.1 °F - 66.9 °F 87% 30.15 in 9.0 mi South 5.8 mph - N/A   Clear
6:53 AM 72.0 °F - 68.0 °F 87% 30.16 in 7.0 mi South 5.8 mph - N/A   Clear
7:53 AM 73.9 °F - 69.1 °F 85% 30.17 in 8.0 mi South 5.8 mph - N/A   Clear
8:53 AM 78.1 °F - 70.0 °F 76% 30.17 in 8.0 mi South 10.4 mph - N/A   Clear
9:53 AM 81.0 °F 84.9 °F 71.1 °F 72% 30.17 in 9.0 mi SSW 9.2 mph 17.3 mph N/A   Clear
10:53 AM 84.0 °F 89.6 °F 72.0 °F 67% 30.16 in 10.0 mi South 10.4 mph - N/A   Clear
11:53 AM 87.1 °F 93.6 °F 72.0 °F 61% 30.14 in 10.0 mi SSW 13.8 mph - N/A   Clear
12:53 PM 89.1 °F 96.0 °F 72.0 °F 57% 30.13 in 10.0 mi SSW 12.7 mph - N/A   Clear
1:53 PM 91.9 °F 100.7 °F 73.0 °F 54% 30.11 in 10.0 mi South 10.4 mph - N/A   Unknown
2:53 PM 91.0 °F 98.2 °F 72.0 °F 53% 30.10 in 10.0 mi SSE 9.2 mph - N/A   Partly Cloudy
3:53 PM 91.9 °F 98.4 °F 71.1 °F 50% 30.08 in 10.0 mi South 11.5 mph - N/A   Clear
4:53 PM 91.9 °F 96.9 °F 69.1 °F 47% 30.08 in 10.0 mi South 9.2 mph - N/A   Clear
5:53 PM 91.0 °F 96.6 °F 70.0 °F 50% 30.08 in 10.0 mi South 9.2 mph - N/A   Clear
6:53 PM 88.0 °F 94.7 °F 72.0 °F 59% 30.08 in 10.0 mi South 6.9 mph - N/A   Clear
7:53 PM 84.0 °F 89.0 °F 71.1 °F 65% 30.08 in 10.0 mi South 8.1 mph - N/A   Clear
8:53 PM 79.0 °F - 71.1 °F 77% 30.09 in 10.0 mi South 5.8 mph - N/A   Clear
9:53 PM 78.1 °F - 70.0 °F 76% 30.11 in 10.0 mi South 4.6 mph - N/A   Clear
10:53 PM 75.9 °F - 70.0 °F 82% 30.12 in 10.0 mi SSW 3.5 mph - N/A   Clear
11:53 PM 77.0 °F - 70.0 °F 79% 30.12 in 10.0 mi South 4.6 mph - N/A   Clear